Time,TemperatureF,DewpointF,PressureIn,WindDirection,WindDirectionDegrees,WindSpeedMPH,WindSpeedGustMPH,Humidity,HourlyPrecipIn,Conditions,Clouds,dailyrainin,SolarRadiationWatts/m^2,SoftwareType,DateUTC
2013-02-21 00:04:00,45.3,29.2,30.03,East,84,1.0,3.0,53,0.00,,,0.00,0,Wunderground v.1.15,2013-02-21 06:04:00,
2013-02-21 00:09:00,45.5,28.4,30.03,East,97,1.0,3.0,51,0.00,,,0.00,0,Wunderground v.1.15,2013-02-21 06:09:00,
2013-02-21 00:15:00,45.8,28.7,30.03,SE,137,1.0,9.0,51,0.00,,,0.00,0,Wunderground v.1.15,2013-02-21 06:15:00,
2013-02-21 00:21:00,45.9,28.3,30.03,ENE,59,0.0,1.0,50,0.00,,,0.00,0,Wunderground v.1.15,2013-02-21 06:21:00,
2013-02-21 00:26:00,46.0,28.9,30.03,East,84,0.0,5.0,51,0.00,,,0.00,0,Wunderground v.1.15,2013-02-21 06:26:00,
2013-02-21 00:31:00,46.1,28.5,30.03,East,83,0.0,1.0,50,0.00,,,0.00,0,Wunderground v.1.15,2013-02-21 06:31:00,
2013-02-21 00:36:00,46.3,28.7,30.03,ESE,105,1.0,1.0,50,0.00,,,0.00,0,Wunderground v.1.15,2013-02-21 06:36:00,
2013-02-21 00:42:00,46.3,28.7,30.03,ESE,105,0.0,1.0,50,0.00,,,0.00,0,Wunderground v.1.15,2013-02-21 06:42:00,
2013-02-21 00:48:00,46.4,28.8,30.03,ENE,65,0.0,4.0,50,0.00,,,0.00,0,Wunderground v.1.15,2013-02-21 06:48:00,
2013-02-21 00:53:00,46.4,28.8,30.03,ESE,109,1.0,1.0,50,0.00,,,0.00,0,Wunderground v.1.15,2013-02-21 06:53:00,
2013-02-21 00:58:00,46.4,28.8,30.03,SE,129,1.0,1.0,50,0.00,,,0.00,0,Wunderground v.1.15,2013-02-21 06:58:00,
2013-02-21 01:03:00,46.4,29.2,30.03,East,81,1.0,2.0,51,0.00,,,0.00,0,Wunderground v.1.15,2013-02-21 07:03:00,
2013-02-21 01:08:00,46.4,28.8,30.03,East,91,1.0,8.0,50,0.00,,,0.00,0,Wunderground v.1.15,2013-02-21 07:08:00,
2013-02-21 01:14:00,46.4,28.3,30.03,East,96,1.0,3.0,49,0.00,,,0.00,0,Wunderground v.1.15,2013-02-21 07:14:00,
2013-02-21 01:19:00,46.4,28.8,30.02,SE,127,0.0,3.0,50,0.00,,,0.00,0,Wunderground v.1.15,2013-02-21 07:19:00,
2013-02-21 01:24:00,46.3,28.2,30.02,ENE,73,0.0,0.0,49,0.00,,,0.00,0,Wunderground v.1.15,2013-02-21 07:24:00,
2013-02-21 01:30:00,46.3,29.1,30.01,ESE,113,0.0,0.0,51,0.00,,,0.00,0,Wunderground v.1.15,2013-02-21 07:30:00,
2013-02-21 01:36:00,46.2,29.1,30.01,East,98,0.0,3.0,51,0.00,,,0.00,0,Wunderground v.1.15,2013-02-21 07:36:00,
2013-02-21 01:41:00,46.2,29.1,30.00,East,99,0.0,0.0,51,0.00,,,0.00,0,Wunderground v.1.15,2013-02-21 07:41:00,
2013-02-21 01:47:00,46.2,29.1,30.00,ESE,117,0.0,0.0,51,0.00,,,0.00,0,Wunderground v.1.15,2013-02-21 07:47:00,
2013-02-21 01:52:00,46.2,29.1,30.00,ESE,113,0.0,0.0,51,0.00,,,0.00,0,Wunderground v.1.15,2013-02-21 07:52:00,
2013-02-21 01:57:00,46.3,28.7,29.99,SE,125,0.0,8.0,50,0.00,,,0.00,0,Wunderground v.1.15,2013-02-21 07:57:00,
2013-02-21 02:03:00,46.3,28.7,29.99,East,79,1.0,3.0,50,0.00,,,0.00,0,Wunderground v.1.15,2013-02-21 08:03:00,
2013-02-21 02:08:00,46.4,28.3,29.99,ESE,111,1.0,3.0,49,0.00,,,0.00,0,Wunderground v.1.15,2013-02-21 08:08:00,
2013-02-21 02:13:00,46.4,28.3,29.99,East,84,1.0,3.0,49,0.00,,,0.00,0,Wunderground v.1.15,2013-02-21 08:13:00,
2013-02-21 02:19:00,46.5,28.8,29.98,ENE,68,1.0,3.0,50,0.00,,,0.00,0,Wunderground v.1.15,2013-02-21 08:19:00,
2013-02-21 02:24:00,46.5,28.8,29.98,ESE,112,1.0,3.0,50,0.00,,,0.00,0,Wunderground v.1.15,2013-02-21 08:24:00,
2013-02-21 02:30:00,46.5,28.8,29.98,ESE,119,1.0,1.0,50,0.00,,,0.00,0,Wunderground v.1.15,2013-02-21 08:30:00,
2013-02-21 02:35:00,46.5,28.8,29.98,ENE,65,0.0,3.0,50,0.00,,,0.00,0,Wunderground v.1.15,2013-02-21 08:35:00,
2013-02-21 02:40:00,46.4,29.2,29.98,East,92,0.0,3.0,51,0.00,,,0.00,0,Wunderground v.1.15,2013-02-21 08:40:00,
2013-02-21 02:46:00,46.5,29.3,29.98,SE,133,0.0,3.0,51,0.00,,,0.00,0,Wunderground v.1.15,2013-02-21 08:46:00,
2013-02-21 02:51:00,46.4,28.8,29.98,SE,131,1.0,3.0,50,0.00,,,0.00,0,Wunderground v.1.15,2013-02-21 08:51:00,
2013-02-21 02:56:00,46.5,29.3,29.98,ESE,106,1.0,4.0,51,0.00,,,0.00,0,Wunderground v.1.15,2013-02-21 08:56:00,
2013-02-21 03:02:00,46.6,29.9,29.98,East,84,0.0,3.0,52,0.00,,,0.00,0,Wunderground v.1.15,2013-02-21 09:02:00,
2013-02-21 03:07:00,46.6,29.4,29.97,ESE,114,0.0,3.0,51,0.00,,,0.00,0,Wunderground v.1.15,2013-02-21 09:07:00,
2013-02-21 03:12:00,46.6,29.4,29.97,ESE,115,1.0,3.0,51,0.00,,,0.00,0,Wunderground v.1.15,2013-02-21 09:12:00,
2013-02-21 03:17:00,46.7,29.5,29.97,SE,140,1.0,3.0,51,0.00,,,0.00,0,Wunderground v.1.15,2013-02-21 09:17:00,
2013-02-21 03:23:00,46.7,29.5,29.96,East,97,1.0,5.0,51,0.00,,,0.00,0,Wunderground v.1.15,2013-02-21 09:23:00,
2013-02-21 03:28:00,46.7,30.0,29.96,East,101,1.0,5.0,52,0.00,,,0.00,0,Wunderground v.1.15,2013-02-21 09:28:00,
2013-02-21 03:33:00,46.7,29.5,29.95,ESE,116,1.0,3.0,51,0.00,,,0.00,0,Wunderground v.1.15,2013-02-21 09:33:00,
2013-02-21 03:38:00,46.7,30.5,29.94,East,85,0.0,3.0,53,0.00,,,0.00,0,Wunderground v.1.15,2013-02-21 09:38:00,
2013-02-21 03:44:00,46.8,29.6,29.95,East,94,1.0,3.0,51,0.00,,,0.00,0,Wunderground v.1.15,2013-02-21 09:44:00,
2013-02-21 03:49:00,46.8,29.6,29.95,NE,44,1.0,3.0,51,0.00,,,0.00,0,Wunderground v.1.15,2013-02-21 09:49:00,
2013-02-21 03:54:00,46.9,30.2,29.95,East,90,0.0,3.0,52,0.00,,,0.00,0,Wunderground v.1.15,2013-02-21 09:54:00,
2013-02-21 04:00:00,46.9,30.2,29.95,ESE,112,0.0,4.0,52,0.00,,,0.00,0,Wunderground v.1.15,2013-02-21 10:00:00,
2013-02-21 04:05:00,46.9,30.2,29.95,ESE,111,0.0,4.0,52,0.00,,,0.00,0,Wunderground v.1.15,2013-02-21 10:05:00,
2013-02-21 04:10:00,46.9,30.6,29.95,ESE,119,0.0,3.0,53,0.00,,,0.00,0,Wunderground v.1.15,2013-02-21 10:10:00,
2013-02-21 04:15:00,46.9,30.2,29.94,ESE,113,0.0,3.0,52,0.00,,,0.00,0,Wunderground v.1.15,2013-02-21 10:15:00,
2013-02-21 04:20:00,46.9,30.2,29.94,ENE,71,0.0,3.0,52,0.00,,,0.00,0,Wunderground v.1.15,2013-02-21 10:20:00,
2013-02-21 04:26:00,46.9,30.6,29.94,ESE,118,0.0,3.0,53,0.00,,,0.00,0,Wunderground v.1.15,2013-02-21 10:26:00,
2013-02-21 04:32:00,46.9,30.6,29.94,ESE,120,0.0,3.0,53,0.00,,,0.00,0,Wunderground v.1.15,2013-02-21 10:32:00,
2013-02-21 04:37:00,46.9,30.6,29.95,ESE,111,0.0,3.0,53,0.00,,,0.00,0,Wunderground v.1.15,2013-02-21 10:37:00,
2013-02-21 04:43:00,46.9,30.6,29.96,ESE,109,0.0,3.0,53,0.00,,,0.00,0,Wunderground v.1.15,2013-02-21 10:43:00,
2013-02-21 04:48:00,47.0,30.7,29.96,East,84,0.0,3.0,53,0.00,,,0.00,0,Wunderground v.1.15,2013-02-21 10:48:00,
2013-02-21 04:53:00,47.0,30.7,29.97,East,87,0.0,3.0,53,0.00,,,0.00,0,Wunderground v.1.15,2013-02-21 10:53:00,
2013-02-21 04:58:00,47.1,30.8,29.96,East,82,0.0,3.0,53,0.00,,,0.00,0,Wunderground v.1.15,2013-02-21 10:58:00,
2013-02-21 05:04:00,47.2,30.9,29.96,ESE,108,0.0,3.0,53,0.00,,,0.00,0,Wunderground v.1.15,2013-02-21 11:04:00,
2013-02-21 05:09:00,47.2,30.9,29.96,ESE,114,0.0,3.0,53,0.00,,,0.00,0,Wunderground v.1.15,2013-02-21 11:09:00,
2013-02-21 05:14:00,47.2,30.9,29.96,SE,134,0.0,3.0,53,0.00,,,0.00,0,Wunderground v.1.15,2013-02-21 11:14:00,
2013-02-21 05:20:00,47.3,31.0,29.95,East,96,0.0,3.0,53,0.00,,,0.00,0,Wunderground v.1.15,2013-02-21 11:20:00,
2013-02-21 05:25:00,47.3,30.5,29.95,ESE,112,0.0,3.0,52,0.00,,,0.00,0,Wunderground v.1.15,2013-02-21 11:25:00,
2013-02-21 05:30:00,47.4,31.1,29.95,ESE,108,1.0,1.0,53,0.00,,,0.00,0,Wunderground v.1.15,2013-02-21 11:30:00,
2013-02-21 05:35:00,47.4,31.1,29.95,SE,133,0.0,3.0,53,0.00,,,0.00,0,Wunderground v.1.15,2013-02-21 11:35:00,
2013-02-21 05:40:00,47.4,31.6,29.96,ESE,117,0.0,3.0,54,0.00,,,0.00,0,Wunderground v.1.15,2013-02-21 11:40:00,
2013-02-21 05:46:00,47.4,31.6,29.96,East,80,0.0,3.0,54,0.00,,,0.00,0,Wunderground v.1.15,2013-02-21 11:46:00,
2013-02-21 05:51:00,47.4,31.1,29.95,ENE,64,1.0,3.0,53,0.00,,,0.00,0,Wunderground v.1.15,2013-02-21 11:51:00,
2013-02-21 05:56:00,47.5,31.2,29.95,ESE,109,1.0,7.0,53,0.00,,,0.00,0,Wunderground v.1.15,2013-02-21 11:56:00,
2013-02-21 06:01:00,47.6,31.8,29.96,East,81,1.0,3.0,54,0.00,,,0.00,0,Wunderground v.1.15,2013-02-21 12:01:00,
2013-02-21 06:07:00,47.6,32.2,29.96,East,99,0.0,3.0,55,0.00,,,0.00,0,Wunderground v.1.15,2013-02-21 12:07:00,
2013-02-21 06:12:00,47.6,31.8,29.97,East,100,0.0,3.0,54,0.00,,,0.00,0,Wunderground v.1.15,2013-02-21 12:12:00,
2013-02-21 06:17:00,47.7,32.3,29.97,ESE,117,0.0,3.0,55,0.00,,,0.00,0,Wunderground v.1.15,2013-02-21 12:17:00,
2013-02-21 06:22:00,47.7,31.9,29.97,East,92,0.0,3.0,54,0.00,,,0.00,0,Wunderground v.1.15,2013-02-21 12:22:00,
2013-02-21 06:27:00,47.8,31.9,29.97,NE,42,0.0,3.0,54,0.00,,,0.00,0,Wunderground v.1.15,2013-02-21 12:27:00,
2013-02-21 06:33:00,47.9,32.5,29.97,East,79,0.0,3.0,55,0.00,,,0.00,0,Wunderground v.1.15,2013-02-21 12:33:00,
2013-02-21 06:39:00,47.9,32.9,29.97,ENE,76,0.0,3.0,56,0.00,,,0.00,0,Wunderground v.1.15,2013-02-21 12:39:00,
2013-02-21 06:44:00,47.9,32.5,29.96,SE,127,0.0,3.0,55,0.00,,,0.00,0,Wunderground v.1.15,2013-02-21 12:44:00,
2013-02-21 06:49:00,47.9,32.5,29.96,ENE,62,0.0,3.0,55,0.00,,,0.00,5,Wunderground v.1.15,2013-02-21 12:49:00,
2013-02-21 06:54:00,48.0,33.0,29.97,ENE,63,0.0,3.0,56,0.00,,,0.00,11,Wunderground v.1.15,2013-02-21 12:54:00,
2013-02-21 06:59:00,48.0,33.0,29.97,East,91,0.0,3.0,56,0.00,,,0.00,9,Wunderground v.1.15,2013-02-21 12:59:00,
2013-02-21 07:05:00,48.1,33.6,29.97,East,81,0.0,3.0,57,0.00,,,0.00,11,Wunderground v.1.15,2013-02-21 13:05:00,
2013-02-21 07:10:00,48.1,34.0,29.97,SSE,154,0.0,3.0,58,0.00,,,0.00,11,Wunderground v.1.15,2013-02-21 13:10:00,
2013-02-21 07:15:00,48.1,33.6,29.97,East,95,0.0,3.0,57,0.00,,,0.00,19,Wunderground v.1.15,2013-02-21 13:15:00,
2013-02-21 07:20:00,48.2,34.1,29.96,SE,126,0.0,3.0,58,0.00,,,0.00,39,Wunderground v.1.15,2013-02-21 13:20:00,
2013-02-21 07:26:00,48.3,34.2,29.97,ESE,104,0.0,8.0,58,0.00,,,0.00,67,Wunderground v.1.15,2013-02-21 13:26:00,
2013-02-21 07:31:00,48.4,34.7,29.97,ESE,106,0.0,3.0,59,0.00,,,0.00,33,Wunderground v.1.15,2013-02-21 13:31:00,
2013-02-21 07:36:00,48.5,34.4,29.97,East,96,0.0,3.0,58,0.00,,,0.00,51,Wunderground v.1.15,2013-02-21 13:36:00,
2013-02-21 07:41:00,48.6,34.9,29.96,ESE,123,0.0,3.0,59,0.00,,,0.00,79,Wunderground v.1.15,2013-02-21 13:41:00,
2013-02-21 07:46:00,48.7,35.0,29.97,ENE,71,1.0,5.0,59,0.00,,,0.00,104,Wunderground v.1.15,2013-02-21 13:46:00,
2013-02-21 07:52:00,48.9,35.6,29.97,ESE,123,1.0,3.0,60,0.00,,,0.00,62,Wunderground v.1.15,2013-02-21 13:52:00,
2013-02-21 07:57:00,49.1,35.8,29.97,SE,134,0.0,7.0,60,0.00,,,0.00,70,Wunderground v.1.15,2013-02-21 13:57:00,
2013-02-21 08:02:00,49.2,35.9,29.97,SE,125,0.0,3.0,60,0.00,,,0.00,183,Wunderground v.1.15,2013-02-21 14:02:00,
2013-02-21 08:07:00,49.5,36.6,29.96,SE,134,0.0,3.0,61,0.00,,,0.00,128,Wunderground v.1.15,2013-02-21 14:07:00,
2013-02-21 08:13:00,49.9,37.0,29.97,ESE,110,1.0,6.0,61,0.00,,,0.00,120,Wunderground v.1.15,2013-02-21 14:13:00,
2013-02-21 08:18:00,50.1,37.2,29.96,East,97,1.0,6.0,61,0.00,,,0.00,84,Wunderground v.1.15,2013-02-21 14:18:00,
2013-02-21 08:23:00,50.2,37.3,29.96,SE,141,1.0,3.0,61,0.00,,,0.00,146,Wunderground v.1.15,2013-02-21 14:23:00,
2013-02-21 08:29:00,50.3,37.8,29.97,East,94,1.0,7.0,62,0.00,,,0.00,120,Wunderground v.1.15,2013-02-21 14:29:00,
2013-02-21 08:34:00,50.4,37.9,29.96,SE,125,1.0,3.0,62,0.00,,,0.00,100,Wunderground v.1.15,2013-02-21 14:34:00,
2013-02-21 08:39:00,50.6,38.5,29.96,ESE,106,1.0,3.0,63,0.00,,,0.00,105,Wunderground v.1.15,2013-02-21 14:39:00,
2013-02-21 08:44:00,50.7,38.6,29.96,SE,142,1.0,3.0,63,0.00,,,0.00,105,Wunderground v.1.15,2013-02-21 14:44:00,
2013-02-21 08:49:00,50.8,38.7,29.96,SE,133,1.0,7.0,63,0.00,,,0.00,144,Wunderground v.1.15,2013-02-21 14:49:00,
2013-02-21 08:54:00,50.9,39.1,29.96,ESE,115,1.0,4.0,64,0.00,,,0.00,123,Wunderground v.1.15,2013-02-21 14:54:00,
2013-02-21 09:00:00,51.1,39.3,29.95,SE,133,1.0,1.0,64,0.00,,,0.00,123,Wunderground v.1.15,2013-02-21 15:00:00,
2013-02-21 09:05:00,51.3,39.9,29.95,SE,129,1.0,8.0,65,0.00,,,0.00,135,Wunderground v.1.15,2013-02-21 15:05:00,
2013-02-21 09:10:00,51.4,40.0,29.94,ESE,122,2.0,12.0,65,0.00,,,0.00,67,Wunderground v.1.15,2013-02-21 15:10:00,
2013-02-21 09:16:00,51.5,40.5,29.93,East,84,2.0,12.0,66,0.00,,,0.00,113,Wunderground v.1.15,2013-02-21 15:16:00,
2013-02-21 09:21:00,51.6,40.6,29.93,ESE,114,1.0,10.0,66,0.00,,,0.00,91,Wunderground v.1.15,2013-02-21 15:21:00,
2013-02-21 09:26:00,51.7,40.7,29.93,SE,141,2.0,12.0,66,0.00,,,0.00,100,Wunderground v.1.15,2013-02-21 15:26:00,
2013-02-21 09:31:00,51.7,41.5,29.93,East,98,2.0,3.0,68,0.00,,,0.00,60,Wunderground v.1.15,2013-02-21 15:31:00,
2013-02-21 09:36:00,51.7,41.9,29.93,SE,124,0.0,5.0,69,0.00,,,0.00,79,Wunderground v.1.15,2013-02-21 15:36:00,
2013-02-21 09:42:00,51.7,41.9,29.93,SE,126,1.0,8.0,69,0.00,,,0.00,137,Wunderground v.1.15,2013-02-21 15:42:00,
2013-02-21 09:47:00,51.9,42.4,29.93,ESE,115,1.0,8.0,70,0.00,,,0.00,105,Wunderground v.1.15,2013-02-21 15:47:00,
2013-02-21 09:52:00,52.2,42.7,29.92,SSE,165,1.0,3.0,70,0.00,,,0.00,105,Wunderground v.1.15,2013-02-21 15:52:00,
2013-02-21 09:57:00,52.5,43.0,29.93,SE,127,1.0,4.0,70,0.00,,,0.00,93,Wunderground v.1.15,2013-02-21 15:57:00,
2013-02-21 10:03:00,53.1,43.9,29.93,ESE,119,2.0,9.0,71,0.00,,,0.00,125,Wunderground v.1.15,2013-02-21 16:03:00,
2013-02-21 10:08:00,53.5,44.3,29.92,ESE,120,3.0,9.0,71,0.00,,,0.00,111,Wunderground v.1.15,2013-02-21 16:08:00,
2013-02-21 10:13:00,53.6,44.8,29.92,SE,136,2.0,3.0,72,0.00,,,0.00,120,Wunderground v.1.15,2013-02-21 16:13:00,
2013-02-21 10:18:00,53.9,45.1,29.92,SE,137,2.0,10.0,72,0.00,,,0.00,114,Wunderground v.1.15,2013-02-21 16:18:00,
2013-02-21 10:23:00,54.2,45.7,29.92,SSE,151,2.0,3.0,73,0.00,,,0.00,132,Wunderground v.1.15,2013-02-21 16:23:00,
2013-02-21 10:29:00,54.5,46.4,29.92,ESE,119,1.0,3.0,74,0.00,,,0.00,98,Wunderground v.1.15,2013-02-21 16:29:00,
2013-02-21 10:34:00,54.8,46.3,29.92,SSE,156,1.0,3.0,73,0.00,,,0.00,251,Wunderground v.1.15,2013-02-21 16:34:00,
2013-02-21 10:40:00,55.1,46.2,29.91,ESE,118,3.0,3.0,72,0.00,,,0.00,186,Wunderground v.1.15,2013-02-21 16:40:00,
2013-02-21 10:45:00,55.5,47.0,29.90,SE,131,2.0,4.0,73,0.00,,,0.00,287,Wunderground v.1.15,2013-02-21 16:45:00,
2013-02-21 10:50:00,55.9,47.4,29.91,SSE,151,1.0,6.0,73,0.00,,,0.00,278,Wunderground v.1.15,2013-02-21 16:50:00,
2013-02-21 10:55:00,56.4,47.9,29.91,SE,144,2.0,7.0,73,0.00,,,0.00,225,Wunderground v.1.15,2013-02-21 16:55:00,
2013-02-21 11:01:00,56.9,48.3,29.90,SE,133,3.0,3.0,73,0.00,,,0.00,158,Wunderground v.1.15,2013-02-21 17:01:00,
2013-02-21 11:07:00,57.1,48.9,29.90,SE,145,2.0,3.0,74,0.00,,,0.00,128,Wunderground v.1.15,2013-02-21 17:07:00,
2013-02-21 11:12:00,57.4,49.2,29.90,ESE,123,1.0,10.0,74,0.00,,,0.00,95,Wunderground v.1.15,2013-02-21 17:12:00,
2013-02-21 11:18:00,57.7,49.8,29.89,SSE,152,2.0,10.0,75,0.00,,,0.00,111,Wunderground v.1.15,2013-02-21 17:18:00,
2013-02-21 11:23:00,57.9,50.4,29.89,South,174,2.0,5.0,76,0.00,,,0.00,97,Wunderground v.1.15,2013-02-21 17:23:00,
2013-02-21 11:28:00,58.1,50.6,29.89,ESE,116,1.0,5.0,76,0.00,,,0.00,84,Wunderground v.1.15,2013-02-21 17:28:00,
2013-02-21 11:33:00,58.3,51.1,29.89,SE,134,1.0,19.0,77,0.00,,,0.00,98,Wunderground v.1.15,2013-02-21 17:33:00,
2013-02-21 11:39:00,58.7,51.5,29.89,SE,140,1.0,19.0,77,0.00,,,0.00,79,Wunderground v.1.15,2013-02-21 17:39:00,
2013-02-21 11:44:00,59.0,51.8,29.88,South,176,2.0,6.0,77,0.00,,,0.00,148,Wunderground v.1.15,2013-02-21 17:44:00,
2013-02-21 11:50:00,59.0,52.1,29.88,SE,140,2.0,2.0,78,0.00,,,0.00,169,Wunderground v.1.15,2013-02-21 17:50:00,
2013-02-21 11:56:00,59.4,52.5,29.88,SE,129,2.0,12.0,78,0.00,,,0.00,188,Wunderground v.1.15,2013-02-21 17:56:00,
2013-02-21 12:01:00,59.7,52.8,29.87,South,183,2.0,3.0,78,0.00,,,0.00,200,Wunderground v.1.15,2013-02-21 18:01:00,
2013-02-21 12:06:00,59.9,53.0,29.87,SSE,159,2.0,3.0,78,0.00,,,0.00,77,Wunderground v.1.15,2013-02-21 18:06:00,
2013-02-21 12:12:00,59.9,53.0,29.86,SE,125,1.0,7.0,78,0.00,,,0.00,156,Wunderground v.1.15,2013-02-21 18:12:00,
2013-02-21 12:18:00,60.1,53.6,29.85,SE,143,2.0,14.0,79,0.00,,,0.00,279,Wunderground v.1.15,2013-02-21 18:18:00,
2013-02-21 12:23:00,60.4,53.9,29.84,SE,136,3.0,13.0,79,0.00,,,0.00,348,Wunderground v.1.15,2013-02-21 18:23:00,
2013-02-21 12:29:00,61.0,54.4,29.83,ESE,113,4.0,13.0,79,0.00,,,0.00,348,Wunderground v.1.15,2013-02-21 18:29:00,
2013-02-21 12:35:00,61.5,54.9,29.82,SSE,167,4.0,5.0,79,0.00,,,0.00,476,Wunderground v.1.15,2013-02-21 18:35:00,
2013-02-21 12:40:00,61.8,55.2,29.82,SE,124,5.0,7.0,79,0.00,,,0.00,278,Wunderground v.1.15,2013-02-21 18:40:00,
2013-02-21 12:45:00,62.1,55.5,29.81,SSE,165,6.0,10.0,79,0.00,,,0.00,309,Wunderground v.1.15,2013-02-21 18:45:00,
2013-02-21 12:50:00,62.3,56.0,29.81,South,175,6.0,11.0,80,0.00,,,0.00,329,Wunderground v.1.15,2013-02-21 18:50:00,
2013-02-21 12:55:00,62.6,56.3,29.80,SE,133,6.0,11.0,80,0.00,,,0.00,330,Wunderground v.1.15,2013-02-21 18:55:00,
2013-02-21 13:00:00,62.9,57.0,29.80,South,177,6.0,6.0,81,0.00,,,0.00,353,Wunderground v.1.15,2013-02-21 19:00:00,
2013-02-21 13:05:00,63.1,57.2,29.79,SE,142,7.0,10.0,81,0.00,,,0.00,193,Wunderground v.1.15,2013-02-21 19:05:00,
2013-02-21 13:10:00,63.1,57.5,29.79,SE,133,6.0,6.0,82,0.00,,,0.00,118,Wunderground v.1.15,2013-02-21 19:10:00,
2013-02-21 13:15:00,63.1,57.5,29.78,South,189,5.0,15.0,82,0.00,,,0.00,98,Wunderground v.1.15,2013-02-21 19:15:00,
2013-02-21 13:21:00,63.0,57.8,29.78,SSE,167,5.0,6.0,83,0.00,,,0.00,79,Wunderground v.1.15,2013-02-21 19:21:00,
2013-02-21 13:27:00,62.9,58.0,29.78,SSE,148,5.0,14.0,84,0.00,,,0.00,88,Wunderground v.1.15,2013-02-21 19:27:00,
2013-02-21 13:32:00,62.8,57.9,29.79,SSE,154,6.0,6.0,84,0.00,,,0.00,90,Wunderground v.1.15,2013-02-21 19:32:00,
2013-02-21 13:37:00,62.8,58.2,29.78,South,171,5.0,8.0,85,0.00,,,0.00,74,Wunderground v.1.15,2013-02-21 19:37:00,
2013-02-21 13:42:00,62.9,58.6,29.77,SE,129,4.0,15.0,86,0.00,,,0.00,23,Wunderground v.1.15,2013-02-21 19:42:00,
2013-02-21 13:48:00,62.8,58.5,29.77,South,178,5.0,15.0,86,0.00,,,0.00,23,Wunderground v.1.15,2013-02-21 19:48:00,
2013-02-21 13:54:00,62.6,59.0,29.77,SSE,159,5.0,6.0,88,0.00,,,0.00,30,Wunderground v.1.15,2013-02-21 19:54:00,
2013-02-21 13:59:00,62.5,58.6,29.76,SE,129,4.0,7.0,87,0.00,,,0.00,26,Wunderground v.1.15,2013-02-21 19:59:00,
2013-02-21 14:04:00,62.3,58.7,29.76,SSE,158,4.0,5.0,88,0.00,,,0.00,18,Wunderground v.1.15,2013-02-21 20:04:00,
2013-02-21 14:10:00,62.2,59.2,29.77,South,178,3.0,3.0,90,0.00,,,0.00,16,Wunderground v.1.15,2013-02-21 20:10:00,
2013-02-21 14:15:00,62.0,59.6,29.77,SE,134,2.0,5.0,92,0.00,,,0.00,26,Wunderground v.1.15,2013-02-21 20:15:00,
2013-02-21 14:20:00,61.7,59.7,29.76,SSE,154,3.0,4.0,93,0.00,,,0.00,28,Wunderground v.1.15,2013-02-21 20:20:00,
2013-02-21 14:25:00,61.6,60.2,29.74,ESE,113,4.0,9.0,95,0.00,,,0.00,23,Wunderground v.1.15,2013-02-21 20:25:00,
2013-02-21 14:31:00,61.8,60.4,29.75,SE,142,4.0,7.0,95,0.00,,,0.00,23,Wunderground v.1.15,2013-02-21 20:31:00,
2013-02-21 14:36:00,61.8,60.4,29.74,East,95,3.0,10.0,95,0.00,,,0.00,37,Wunderground v.1.15,2013-02-21 20:36:00,
2013-02-21 14:42:00,61.9,60.7,29.74,SE,130,3.0,7.0,96,0.00,,,0.00,47,Wunderground v.1.15,2013-02-21 20:42:00,
2013-02-21 14:48:00,61.9,60.7,29.75,SSE,147,2.0,11.0,96,0.00,,,0.00,19,Wunderground v.1.15,2013-02-21 20:48:00,
2013-02-21 14:53:00,62.0,60.8,29.74,SSE,167,3.0,6.0,96,0.00,,,0.00,19,Wunderground v.1.15,2013-02-21 20:53:00,
2013-02-21 14:59:00,62.1,60.9,29.74,SE,137,4.0,9.0,96,0.00,,,0.00,28,Wunderground v.1.15,2013-02-21 20:59:00,
2013-02-21 15:04:00,62.1,60.9,29.73,ESE,115,4.0,8.0,96,0.00,,,0.00,33,Wunderground v.1.15,2013-02-21 21:04:00,
2013-02-21 15:09:00,62.1,60.9,29.73,SSW,205,3.0,8.0,96,0.00,,,0.00,26,Wunderground v.1.15,2013-02-21 21:09:00,
2013-02-21 15:14:00,62.2,61.0,29.73,SSE,149,2.0,4.0,96,0.00,,,0.00,25,Wunderground v.1.15,2013-02-21 21:14:00,
2013-02-21 15:20:00,62.3,61.1,29.74,SSE,148,1.0,1.0,96,0.00,,,0.00,21,Wunderground v.1.15,2013-02-21 21:20:00,
2013-02-21 15:25:00,62.4,61.2,29.73,ESE,123,2.0,3.0,96,0.00,,,0.00,32,Wunderground v.1.15,2013-02-21 21:25:00,
2013-02-21 15:31:00,62.5,61.6,29.72,SE,134,2.0,5.0,97,0.00,,,0.00,47,Wunderground v.1.15,2013-02-21 21:31:00,
2013-02-21 15:36:00,62.7,61.8,29.72,South,175,3.0,6.0,97,0.00,,,0.00,32,Wunderground v.1.15,2013-02-21 21:36:00,
2013-02-21 15:42:00,62.9,62.0,29.72,ESE,108,3.0,5.0,97,0.00,,,0.00,23,Wunderground v.1.15,2013-02-21 21:42:00,
2013-02-21 15:47:00,63.1,62.2,29.72,SE,144,3.0,11.0,97,0.00,,,0.00,11,Wunderground v.1.15,2013-02-21 21:47:00,
2013-02-21 15:53:00,63.2,62.3,29.72,SSE,150,4.0,7.0,97,0.00,,,0.00,12,Wunderground v.1.15,2013-02-21 21:53:00,
2013-02-21 15:58:00,63.2,62.3,29.72,SSE,164,5.0,10.0,97,0.00,,,0.00,14,Wunderground v.1.15,2013-02-21 21:58:00,
2013-02-21 16:03:00,63.3,62.4,29.72,ENE,75,4.0,8.0,97,0.00,,,0.00,14,Wunderground v.1.15,2013-02-21 22:03:00,
2013-02-21 16:09:00,63.4,62.5,29.72,South,182,5.0,10.0,97,0.00,,,0.00,7,Wunderground v.1.15,2013-02-21 22:09:00,
2013-02-21 16:14:00,63.4,62.5,29.72,SE,132,4.0,7.0,97,0.00,,,0.00,9,Wunderground v.1.15,2013-02-21 22:14:00,
2013-02-21 16:20:00,63.6,62.7,29.72,SE,146,3.0,3.0,97,0.00,,,0.00,7,Wunderground v.1.15,2013-02-21 22:20:00,
2013-02-21 16:26:00,63.8,62.9,29.73,South,187,2.0,10.0,97,0.00,,,0.00,9,Wunderground v.1.15,2013-02-21 22:26:00,
2013-02-21 16:31:00,64.0,63.1,29.73,SSW,195,2.0,6.0,97,0.00,,,0.00,9,Wunderground v.1.15,2013-02-21 22:31:00,
2013-02-21 16:36:00,64.3,63.4,29.73,SSE,150,2.0,6.0,97,0.00,,,0.00,7,Wunderground v.1.15,2013-02-21 22:36:00,
2013-02-21 16:42:00,64.4,63.5,29.73,South,171,2.0,3.0,97,0.00,,,0.00,7,Wunderground v.1.15,2013-02-21 22:42:00,
2013-02-21 16:47:00,64.7,63.8,29.73,SSE,160,2.0,11.0,97,0.00,,,0.00,5,Wunderground v.1.15,2013-02-21 22:47:00,
2013-02-21 16:52:00,65.0,64.1,29.73,SSW,198,3.0,6.0,97,0.00,,,0.00,0,Wunderground v.1.15,2013-02-21 22:52:00,
2013-02-21 16:58:00,65.4,64.8,29.73,South,174,5.0,12.0,98,0.00,,,0.00,9,Wunderground v.1.15,2013-02-21 22:58:00,
2013-02-21 17:03:00,65.6,64.7,29.73,SE,141,5.0,15.0,97,0.00,,,0.00,5,Wunderground v.1.15,2013-02-21 23:03:00,
2013-02-21 17:08:00,65.6,64.7,29.73,SSE,157,4.0,15.0,97,0.00,,,0.00,0,Wunderground v.1.15,2013-02-21 23:08:00,
2013-02-21 17:13:00,65.8,64.9,29.73,SSE,156,5.0,13.0,97,0.00,,,0.00,0,Wunderground v.1.15,2013-02-21 23:13:00,
2013-02-21 17:19:00,66.0,65.1,29.73,SSE,158,6.0,13.0,97,0.00,,,0.00,0,Wunderground v.1.15,2013-02-21 23:19:00,
2013-02-21 17:24:00,66.1,65.2,29.74,SSW,202,5.0,11.0,97,0.00,,,0.00,0,Wunderground v.1.15,2013-02-21 23:24:00,
2013-02-21 17:29:00,66.2,65.3,29.74,South,173,4.0,14.0,97,0.00,,,0.00,0,Wunderground v.1.15,2013-02-21 23:29:00,
2013-02-21 17:34:00,66.3,65.4,29.74,SW,221,4.0,14.0,97,0.00,,,0.00,0,Wunderground v.1.15,2013-02-21 23:34:00,
2013-02-21 17:40:00,66.3,65.4,29.74,SW,230,3.0,6.0,97,0.00,,,0.00,0,Wunderground v.1.15,2013-02-21 23:40:00,
2013-02-21 17:45:00,66.3,65.4,29.75,South,176,4.0,13.0,97,0.00,,,0.00,0,Wunderground v.1.15,2013-02-21 23:45:00,
2013-02-21 17:51:00,66.3,65.4,29.74,South,178,4.0,4.0,97,0.00,,,0.00,0,Wunderground v.1.15,2013-02-21 23:51:00,
2013-02-21 17:56:00,66.3,65.4,29.74,SSE,151,3.0,4.0,97,0.00,,,0.00,0,Wunderground v.1.15,2013-02-21 23:56:00,
2013-02-21 18:01:00,66.3,65.4,29.75,SSE,160,3.0,9.0,97,0.00,,,0.00,0,Wunderground v.1.15,2013-02-22 00:01:00,
2013-02-21 18:06:00,66.4,65.5,29.75,SSE,162,2.0,9.0,97,0.00,,,0.00,0,Wunderground v.1.15,2013-02-22 00:06:00,
2013-02-21 18:12:00,66.5,65.6,29.75,SSE,167,3.0,6.0,97,0.00,,,0.00,0,Wunderground v.1.15,2013-02-22 00:12:00,
2013-02-21 18:17:00,66.5,65.6,29.75,SW,215,3.0,10.0,97,0.00,,,0.00,0,Wunderground v.1.15,2013-02-22 00:17:00,
2013-02-21 18:22:00,66.5,65.6,29.75,SW,225,2.0,12.0,97,0.00,,,0.00,0,Wunderground v.1.15,2013-02-22 00:22:00,
2013-02-21 18:28:00,66.6,65.7,29.75,SSE,166,2.0,12.0,97,0.00,,,0.00,0,Wunderground v.1.15,2013-02-22 00:28:00,
2013-02-21 18:34:00,66.7,65.8,29.75,South,189,2.0,9.0,97,0.00,,,0.00,0,Wunderground v.1.15,2013-02-22 00:34:00,
2013-02-21 18:39:00,66.8,65.9,29.75,South,184,3.0,9.0,97,0.00,,,0.00,0,Wunderground v.1.15,2013-02-22 00:39:00,
2013-02-21 18:44:00,66.9,66.0,29.75,SSE,165,4.0,4.0,97,0.00,,,0.00,0,Wunderground v.1.15,2013-02-22 00:44:00,
2013-02-21 18:49:00,66.9,66.0,29.75,SSW,192,2.0,4.0,97,0.00,,,0.00,0,Wunderground v.1.15,2013-02-22 00:49:00,
2013-02-21 18:55:00,67.0,66.1,29.75,SSW,205,3.0,12.0,97,0.00,,,0.00,0,Wunderground v.1.15,2013-02-22 00:55:00,
2013-02-21 19:00:00,67.2,66.3,29.76,SSW,196,4.0,4.0,97,0.00,,,0.00,0,Wunderground v.1.15,2013-02-22 01:00:00,
2013-02-21 19:05:00,67.2,66.3,29.76,SSE,162,3.0,13.0,97,0.00,,,0.00,0,Wunderground v.1.15,2013-02-22 01:05:00,
2013-02-21 19:11:00,67.4,66.5,29.77,SSW,196,3.0,3.0,97,0.00,,,0.00,0,Wunderground v.1.15,2013-02-22 01:11:00,
2013-02-21 19:16:00,67.4,66.5,29.77,South,173,3.0,10.0,97,0.00,,,0.00,0,Wunderground v.1.15,2013-02-22 01:16:00,
2013-02-21 19:21:00,67.5,66.6,29.77,SSW,200,3.0,4.0,97,0.00,,,0.00,0,Wunderground v.1.15,2013-02-22 01:21:00,
2013-02-21 19:26:00,67.5,66.3,29.78,SSW,202,2.0,6.0,96,0.00,,,0.00,0,Wunderground v.1.15,2013-02-22 01:26:00,
2013-02-21 19:32:00,67.5,66.6,29.78,SSW,198,2.0,10.0,97,0.00,,,0.00,0,Wunderground v.1.15,2013-02-22 01:32:00,
2013-02-21 19:37:00,67.6,66.7,29.78,South,177,2.0,10.0,97,0.00,,,0.00,0,Wunderground v.1.15,2013-02-22 01:37:00,
2013-02-21 19:42:00,67.7,66.8,29.78,South,178,2.0,12.0,97,0.00,,,0.00,0,Wunderground v.1.15,2013-02-22 01:42:00,
2013-02-21 19:47:00,67.7,66.8,29.78,SSW,206,2.0,12.0,97,0.00,,,0.00,0,Wunderground v.1.15,2013-02-22 01:47:00,
2013-02-21 19:53:00,67.8,66.9,29.78,South,183,2.0,3.0,97,0.00,,,0.00,0,Wunderground v.1.15,2013-02-22 01:53:00,
2013-02-21 19:58:00,67.8,66.9,29.77,South,177,1.0,8.0,97,0.00,,,0.00,0,Wunderground v.1.15,2013-02-22 01:58:00,
2013-02-21 20:03:00,67.8,66.9,29.77,SSW,204,2.0,12.0,97,0.00,,,0.00,0,Wunderground v.1.15,2013-02-22 02:03:00,
2013-02-21 20:08:00,67.8,66.9,29.78,SSW,201,2.0,12.0,97,0.00,,,0.00,0,Wunderground v.1.15,2013-02-22 02:08:00,
2013-02-21 20:14:00,67.8,66.9,29.77,SSE,163,1.0,3.0,97,0.00,,,0.00,0,Wunderground v.1.15,2013-02-22 02:14:00,
2013-02-21 20:19:00,67.8,66.9,29.77,SSW,199,1.0,3.0,97,0.00,,,0.00,0,Wunderground v.1.15,2013-02-22 02:19:00,
2013-02-21 20:25:00,67.8,66.9,29.77,SSW,201,1.0,7.0,97,0.00,,,0.00,0,Wunderground v.1.15,2013-02-22 02:25:00,
2013-02-21 20:30:00,67.8,66.9,29.78,SSW,192,2.0,2.0,97,0.00,,,0.00,0,Wunderground v.1.15,2013-02-22 02:30:00,
2013-02-21 20:36:00,67.9,67.0,29.78,SSW,192,2.0,7.0,97,0.00,,,0.00,0,Wunderground v.1.15,2013-02-22 02:36:00,
2013-02-21 20:41:00,67.9,67.0,29.78,SSW,205,2.0,3.0,97,0.00,,,0.00,0,Wunderground v.1.15,2013-02-22 02:41:00,
2013-02-21 20:47:00,68.0,67.1,29.78,South,191,1.0,9.0,97,0.00,,,0.00,0,Wunderground v.1.15,2013-02-22 02:47:00,
2013-02-21 20:52:00,68.0,67.1,29.79,SSW,203,1.0,3.0,97,0.00,,,0.00,0,Wunderground v.1.15,2013-02-22 02:52:00,
2013-02-21 20:58:00,68.0,67.1,29.78,South,179,1.0,3.0,97,0.00,,,0.00,0,Wunderground v.1.15,2013-02-22 02:58:00,
2013-02-21 21:03:00,68.0,67.1,29.79,South,185,1.0,3.0,97,0.00,,,0.00,0,Wunderground v.1.15,2013-02-22 03:03:00,
2013-02-21 21:08:00,68.1,67.2,29.80,SSW,202,1.0,3.0,97,0.00,,,0.00,0,Wunderground v.1.15,2013-02-22 03:08:00,
2013-02-21 21:13:00,68.2,67.3,29.80,SW,216,2.0,6.0,97,0.00,,,0.00,0,Wunderground v.1.15,2013-02-22 03:13:00,
2013-02-21 21:19:00,68.1,67.2,29.79,SSW,204,2.0,6.0,97,0.00,,,0.00,0,Wunderground v.1.15,2013-02-22 03:19:00,
2013-02-21 21:24:00,68.2,67.3,29.78,SSW,210,0.0,3.0,97,0.00,,,0.00,0,Wunderground v.1.15,2013-02-22 03:24:00,
2013-02-21 21:31:00,68.2,67.3,29.75,NNE,29,0.0,6.0,97,0.00,,,0.00,0,Wunderground v.1.15,2013-02-22 03:31:00,
2013-02-21 21:36:00,68.2,67.3,29.79,WNW,282,3.0,10.0,97,0.00,,,0.00,0,Wunderground v.1.15,2013-02-22 03:36:00,
2013-02-21 21:42:00,68.0,67.1,29.81,WSW,250,5.0,5.0,97,0.00,,,0.00,0,Wunderground v.1.15,2013-02-22 03:42:00,
2013-02-21 21:48:00,67.9,67.0,29.80,WNW,291,3.0,5.0,97,0.00,,,0.00,0,Wunderground v.1.15,2013-02-22 03:48:00,
2013-02-21 21:53:00,67.9,67.0,29.81,SW,233,2.0,3.0,97,0.00,,,0.00,0,Wunderground v.1.15,2013-02-22 03:53:00,
2013-02-21 21:58:00,67.8,66.9,29.80,SW,233,1.0,3.0,97,0.00,,,0.00,0,Wunderground v.1.15,2013-02-22 03:58:00,
2013-02-21 22:04:00,67.7,66.8,29.81,SW,236,0.0,3.0,97,0.00,,,0.00,0,Wunderground v.1.15,2013-02-22 04:04:00,
2013-02-21 22:10:00,67.6,66.7,29.82,SW,236,0.0,3.0,97,0.00,,,0.00,0,Wunderground v.1.15,2013-02-22 04:10:00,
2013-02-21 22:16:00,67.5,66.6,29.82,SW,236,0.0,3.0,97,0.00,,,0.00,0,Wunderground v.1.15,2013-02-22 04:16:00,
2013-02-21 22:21:00,67.5,66.6,29.82,South,171,1.0,10.0,97,0.00,,,0.00,0,Wunderground v.1.15,2013-02-22 04:21:00,
2013-02-21 22:26:00,67.6,67.0,29.82,WSW,251,3.0,12.0,98,0.00,,,0.00,0,Wunderground v.1.15,2013-02-22 04:26:00,
2013-02-21 22:31:00,67.6,67.0,29.83,WNW,282,2.0,3.0,98,0.00,,,0.00,0,Wunderground v.1.15,2013-02-22 04:31:00,
2013-02-21 22:36:00,67.5,66.9,29.83,SW,233,1.0,3.0,98,0.00,,,0.00,0,Wunderground v.1.15,2013-02-22 04:36:00,
2013-02-21 22:42:00,67.2,66.3,29.83,SW,220,2.0,3.0,97,0.00,,,0.00,0,Wunderground v.1.15,2013-02-22 04:42:00,
2013-02-21 22:47:00,66.9,66.0,29.83,North,10,3.0,9.0,97,0.00,,,0.00,0,Wunderground v.1.15,2013-02-22 04:47:00,
2013-02-21 22:52:00,66.0,64.8,29.85,NW,319,3.0,9.0,96,0.00,,,0.00,0,Wunderground v.1.15,2013-02-22 04:52:00,
2013-02-21 22:58:00,64.8,63.3,29.84,WNW,298,3.0,9.0,95,0.00,,,0.00,0,Wunderground v.1.15,2013-02-22 04:58:00,
2013-02-21 23:00:00,64.6,63.1,29.85,WNW,296,3.0,3.0,95,0.00,,,0.00,0,Wunderground v.1.15,2013-02-22 05:00:00,
2013-02-21 23:01:00,64.5,63.0,29.85,WNW,296,3.0,3.0,95,0.00,,,0.00,0,Wunderground v.1.15,2013-02-22 05:01:00,
2013-02-21 23:06:00,64.1,62.9,29.85,WNW,296,0.0,3.0,96,0.00,,,0.00,0,Wunderground v.1.15,2013-02-22 05:06:00,
2013-02-21 23:11:00,63.8,62.6,29.84,WNW,296,0.0,3.0,96,0.00,,,0.00,0,Wunderground v.1.15,2013-02-22 05:11:00,
2013-02-21 23:17:00,63.5,62.3,29.85,WNW,296,0.0,3.0,96,0.00,,,0.00,0,Wunderground v.1.15,2013-02-22 05:17:00,
2013-02-21 23:22:00,63.3,62.1,29.85,WNW,296,0.0,3.0,96,0.00,,,0.00,0,Wunderground v.1.15,2013-02-22 05:22:00,
2013-02-21 23:27:00,63.2,62.3,29.85,WNW,296,0.0,3.0,97,0.00,,,0.00,0,Wunderground v.1.15,2013-02-22 05:27:00,
2013-02-21 23:32:00,62.9,61.7,29.86,WNW,296,0.0,3.0,96,0.00,,,0.00,0,Wunderground v.1.15,2013-02-22 05:32:00,
2013-02-21 23:37:00,62.5,61.3,29.85,WNW,296,0.0,3.0,96,0.00,,,0.00,0,Wunderground v.1.15,2013-02-22 05:37:00,
2013-02-21 23:43:00,62.3,61.1,29.85,WNW,296,0.0,3.0,96,0.00,,,0.00,0,Wunderground v.1.15,2013-02-22 05:43:00,
2013-02-21 23:48:00,62.1,61.2,29.85,WNW,296,0.0,3.0,97,0.00,,,0.00,0,Wunderground v.1.15,2013-02-22 05:48:00,
2013-02-21 23:53:00,62.0,61.1,29.85,WNW,296,0.0,3.0,97,0.00,,,0.00,0,Wunderground v.1.15,2013-02-22 05:53:00,
2013-02-21 23:58:00,61.8,60.6,29.86,WNW,296,0.0,3.0,96,0.00,,,0.00,0,Wunderground v.1.15,2013-02-22 05:58:00,